Location: Unspecified
(0.0000°N, 0.0000°E)
Time: 01:37:16
(UTC+00:00)

Tiros 1 - Pass Details

Date: 24 April 2026
Orbit: 618 x 648 km, 48.4° (Epoch: 15 May)

Event Time Altitude Azimuth Distance (km) Brightness Sun altitude
Exits shadow 05:03:48 20° 249° (WSW) 1,445 8.3 -13.3°
Maximum altitude 05:06:30 40° 309° (NW) 913 7.6 -12.6°
Drops below altitude 10° 05:10:45 10° 19° (NNE) 1,967 10.1 -11.6°
Sets 05:13:09 0° 26° (NNE) 2,869 11.1 -11.0°
